Weather History for Sidney, NE

Change the Weather History Date:

Tuesday, November 26, 2013

  Actual Average Record
Temperature  
Mean Temperature 30 °F 33 °F  
Max Temperature 39 °F 46 °F 74 °F (1995)
Min Temperature 21 °F 20 °F -8 °F (1952)
Degree Days  
Heating Degree Days 35 32  
Month to date heating degree days 722 688  
Since 1 July heating degree days 1383 1291  
Cooling Degree Days 0 0  
Month to date cooling degree days 0 0  
Year to date cooling degree days 918 830  
Moisture  
Dew Point 20 °F    
Average Humidity 66    
Maximum Humidity 84    
Minimum Humidity 48    
Precipitation  
Precipitation 0.00 in 0.01 in 0.43 in (1983)
Month to date precipitation 0.35 0.50  
Year to date precipitation 16.82 17.93  
Sea Level Pressure  
Sea Level Pressure 30.42 in    
Wind  
Wind Speed 9 mph (WNW)    
Max Wind Speed 14 mph    
Max Gust Speed 16 mph    
Visibility 10 miles    
Events      
T = Trace of Precipitation, MM = Missing Value Source: NWS Daily Summary

Daily Weather History Graph

Daily Weather History Graph

Search for Another Location

Airport:

Trip Planner

Search our weather history database for the weather conditions in past years. The results will help you decide how hot, cold, wet, or windy it might be!

Date:

Astronomy

Nov. 26, 2013 Rise Set
Actual Time 6:52 AM MST 4:25 PM MST
Civil Twilight 6:22 AM MST 4:56 PM MST
Nautical Twilight 5:48 AM MST 5:30 PM MST
Astronomical Twilight 5:15 AM MST 6:03 PM MST
Moon No Moon Rise 12:36 PM MST (11/26)
Length of Visible Light 10h 33m
Length of Day
9h 33m
Last Quarter, 40% of the Moon is Illuminated
Nov 26
Last Quarter
Dec 2
New
Dec 9
First Quarter
Dec 17
Full
Dec 25
Last Quarter

Hourly Weather History & Observations

Time (MST) Temp. Windchill Dew Point Humidity Pressure Visibility Wind Dir Wind Speed Gust Speed Precip Events Conditions
12:53 AM 25.0 °F 15.5 °F 19.9 °F 81% 30.36 in 10.0 mi NW 9.2 mph - N/A   Mostly Cloudy
1:53 AM 21.9 °F 11.0 °F 18.0 °F 85% 30.37 in 10.0 mi WNW 10.4 mph - N/A   Scattered Clouds
2:53 AM 24.1 °F 13.7 °F 19.0 °F 81% 30.36 in 10.0 mi WNW 10.4 mph - N/A   Clear
3:53 AM 25.0 °F 14.2 °F 19.9 °F 81% 30.37 in 10.0 mi WNW 11.5 mph - N/A   Clear
4:53 AM 25.0 °F 13.6 °F 19.9 °F 81% 30.40 in 10.0 mi WNW 12.7 mph - N/A   Mostly Cloudy
5:53 AM 24.1 °F 13.1 °F 19.0 °F 81% 30.43 in 10.0 mi WNW 11.5 mph - N/A   Clear
6:53 AM 21.9 °F 11.0 °F 18.0 °F 85% 30.45 in 10.0 mi WNW 10.4 mph - N/A   Clear
7:53 AM 26.1 °F 19.4 °F 21.0 °F 81% 30.49 in 10.0 mi NW 5.8 mph - N/A   Mostly Cloudy
8:53 AM 30.0 °F 22.4 °F 24.1 °F 79% 30.49 in 10.0 mi NW 8.1 mph - N/A   Overcast
9:53 AM 34.0 °F 27.2 °F 24.1 °F 67% 30.49 in 10.0 mi NW 8.1 mph - N/A   Scattered Clouds
10:53 AM 36.0 °F 29.0 °F 21.9 °F 57% 30.48 in 10.0 mi NNW 9.2 mph - N/A   Clear
11:53 AM 37.9 °F 30.9 °F 21.0 °F 51% 30.44 in 10.0 mi North 10.4 mph - N/A   Clear
12:53 PM 37.9 °F 31.5 °F 21.0 °F 51% 30.42 in 10.0 mi North 9.2 mph - N/A   Clear
1:53 PM 39.0 °F 34.8 °F 21.0 °F 49% 30.42 in 10.0 mi NNE 5.8 mph - N/A   Clear
2:53 PM 39.0 °F 32.8 °F 21.0 °F 49% 30.40 in 10.0 mi North 9.2 mph - N/A   Clear
3:53 PM 36.0 °F 30.3 °F 21.0 °F 55% 30.40 in 10.0 mi NE 6.9 mph - N/A   Clear
4:53 PM 26.1 °F 20.5 °F 19.9 °F 78% 30.42 in 10.0 mi East 4.6 mph - N/A   Clear
5:53 PM 23.0 °F 17.0 °F 18.0 °F 81% 30.44 in 10.0 mi South 4.6 mph - N/A   Clear
6:53 PM 23.0 °F 17.0 °F 18.0 °F 81% 30.44 in 10.0 mi South 4.6 mph - N/A   Clear
7:53 PM 24.1 °F 15.2 °F 18.0 °F 77% 30.43 in 10.0 mi SSW 8.1 mph - N/A   Clear
8:53 PM 23.0 °F 14.7 °F 18.0 °F 81% 30.40 in 10.0 mi SW 6.9 mph - N/A   Clear
9:53 PM 21.9 °F 11.0 °F 18.0 °F 85% 30.38 in 10.0 mi SSW 10.4 mph - N/A   Clear
10:53 PM 24.1 °F 13.1 °F 19.0 °F 81% 30.36 in 10.0 mi SSW 11.5 mph - N/A   Clear
11:53 PM 24.1 °F 15.2 °F 19.0 °F 81% 30.33 in 10.0 mi SSW 8.1 mph - N/A   Clear